PA3CPS Weather Reports


time (UTC)temp
F
wind
direction
speed
knots
gust
knots
rain 1hr
in
rain 24hr
in
rain mn
in
humidity
%
barometer
mb
20260503021533 57 104 0.0 0.0 0.02 0.06 0.03 91 1011.5
20260503021032 57 104 0.0 0.0 0.02 0.06 0.03 91 1011.5
20260503020533 57 104 0.0 0.9 0.02 0.06 0.03 90 1011.5
20260503020033 57 104 0.0 0.9 0.02 0.06 0.03 90 1011.6
20260503015531 57 104 0.0 1.7 0.02 0.04 0.03 90 1011.6
20260503015032 57 104 0.0 1.7 0.02 0.04 0.03 90 1011.4
20260503014531 57 8 0.0 2.6 0.02 0.04 0.02 90 1011.4
20260503014030 57 8 1.7 2.6 0.02 0.04 0.02 90 1011.1
20260503013530 57 351 1.7 2.6 0.02 0.04 0.02 90 1011.1
20260503013030 57 87 0.0 2.6 0.02 0.04 0.02 90 1011.4
20260503012531 57 87 0.9 2.6 0.02 0.04 0.02 90 1012.0
20260503012031 57 129 0.0 3.5 0.01 0.04 0.02 89 1012.3
20260503011531 57 141 0.0 3.5 0.01 0.04 0.02 89 1012.5
20260503011031 57 171 1.7 3.5 0.01 0.04 0.02 89 1012.4
20260503010531 57 320 0.0 0.0 0.00 0.04 0.01 89 1012.4
20260503010031 57 320 0.0 0.0 0.00 0.04 0.01 89 1011.9
20260503005531 57 320 0.0 0.0 0.00 0.04 0.01 89 1011.8
20260503005032 57 320 0.0 0.0 0.01 0.04 0.01 89 1011.8
20260503004531 58 320 0.0 0.0 0.01 0.04 0.01 89 1011.7
20260503004031 58 320 0.0 0.0 0.01 0.04 0.01 89 1012.0
20260503003532 58 320 0.0 2.6 0.01 0.04 0.01 89 1012.0
20260503003031 58 320 0.9 4.3 0.01 0.04 0.01 89 1012.0
20260503002531 58 291 1.7 6.1 0.01 0.04 0.01 89 1011.9
20260503002031 58 306 1.7 7.8 0.01 0.04 0.01 89 1011.9
20260503001531 58 328 2.6 7.8 0.01 0.04 0.01 89 1011.8
20260503001031 58 304 4.3 7.0 0.01 0.04 0.01 89 1011.9
20260503000530 58 340 1.7 3.5 0.01 0.04 0.01 90 1012.3
20260503000032 58 270 1.7 6.1 0.01 0.04 0.01 90 1012.7
20260502235533 58 268 3.5 6.1 0.01 0.03 0.01 90 1012.9
20260502235031 58 230 1.7 4.3 0.00 0.03 0.00 89 1013.1
20260502234530 58 170 0.0 1.7 0.00 0.03 0.00 89 1013.1
20260502234028 58 170 0.0 1.7 0.00 0.03 0.00 89 1013.1
20260502233526 58 170 0.9 2.6 0.00 0.03 0.00 89 1013.4
20260502233019 58 170 0.9 2.6 0.00 0.03 0.00 89 1013.5
20260502232516 58 170 0.0 1.7 0.00 0.03 0.00 89 1013.7
20260502232010 58 170 0.9 2.6 0.00 0.03 0.00 88 1013.8
20260502231509 58 170 0.0 2.6 0.00 0.03 0.00 88 1013.6
20260502231008 58 197 0.9 3.5 0.00 0.03 0.00 88 1013.8
20260502230507 58 168 1.7 3.5 0.00 0.03 0.00 88 1013.8
20260502230007 58 194 0.0 3.5 0.00 0.03 0.00 88 1013.7
20260502225505 58 202 2.6 3.5 0.00 0.03 0.00 88 1013.9
20260502225003 58 222 1.7 3.5 0.00 0.03 0.00 87 1013.9
20260502224502 58 212 1.7 2.6 0.00 0.03 0.00 87 1013.8
20260502224007 58 230 1.7 2.6 0.00 0.03 0.00 87 1013.6
20260502223504 58 215 0.9 2.6 0.00 0.03 0.00 86 1013.3
20260502223005 58 200 1.7 2.6 0.00 0.03 0.00 86 1013.7
20260502222502 58 14 0.9 1.7 0.00 0.03 0.00 86 1013.2
20260502222003 59 14 0.0 0.0 0.00 0.03 0.00 86 1012.9
20260502221502 59 14 0.0 2.6 0.00 0.03 0.00 86 1012.8
20260502221001 59 14 0.9 2.6 0.00 0.03 0.00 86 1012.7
20260502220500 59 7 1.7 2.6 0.01 0.03 0.00 86 1012.8
20260502215957 59 8 1.7 2.6 0.03 0.00 0.03 86 1012.8
20260502215451 59 11 1.7 2.6 0.03 0.00 0.03 86 1012.9
20260502214950 59 23 0.0 1.7 0.03 0.00 0.03 86 1013.0
20260502214445 59 23 0.0 0.9 0.03 0.00 0.03 86 1013.1
20260502213942 59 23 0.0 1.7 0.03 0.00 0.03 85 1013.3
20260502213433 59 23 0.0 1.7 0.03 0.00 0.03 85 1013.2
20260502212935 60 23 0.9 0.9 0.03 0.00 0.03 85 1013.4
20260502212432 60 23 0.0 1.7 0.03 0.00 0.03 84 1013.6
20260502211935 60 23 0.0 1.7 0.03 0.00 0.03 84 1013.6
20260502211431 61 23 0.0 1.7 0.03 0.00 0.03 82 1013.7
20260502210931 61 23 0.0 1.7 0.03 0.00 0.03 81 1013.9
20260502210423 62 45 0.0 2.6 0.02 0.00 0.02 78 1014.0
20260502205919 62 163 0.0 2.6 0.00 0.00 0.00 75 1014.3
20260502205417 62 109 0.0 6.1 0.00 0.00 0.00 76 1014.4
20260502204916 62 120 0.9 6.1 0.00 0.00 0.00 77 1014.3
20260502204415 61 129 1.7 2.6 0.00 0.00 0.00 78 1014.3
20260502203914 61 356 0.0 1.7 0.00 0.00 0.00 80 1014.1
20260502203414 61 356 0.0 0.9 0.00 0.00 0.00 80 1014.1
20260502202907 61 356 0.0 1.7 0.00 0.00 0.00 79 1013.9
20260502202407 61 356 0.9 1.7 0.00 0.00 0.00 79 1013.9
20260502201908 62 356 0.0 1.7 0.00 0.00 0.00 78 1013.9
20260502201405 62 356 0.0 0.0 0.00 0.00 0.00 78 1013.9
20260502200906 62 356 0.0 0.0 0.00 0.00 0.00 77 1014.1
20260502200406 63 356 0.0 0.9 0.00 0.00 0.00 76 1014.1
20260502195920 63 356 0.0 0.9 0.00 0.00 0.00 76 1014.1
20260502195406 63 356 0.0 2.6 0.00 0.00 0.00 76 1014.2
20260502194904 63 356 0.0 3.5 0.00 0.00 0.00 76 1014.2
20260502194402 63 341 1.7 3.5 0.00 0.00 0.00 76 1014.2
20260502193903 64 10 0.9 3.5 0.00 0.00 0.00 76 1014.3
20260502193402 64 346 0.9 2.6 0.00 0.00 0.00 76 1014.2
20260502192902 64 341 0.9 2.6 0.00 0.00 0.00 75 1014.3
20260502192403 64 335 0.9 2.6 0.00 0.00 0.00 75 1014.2
20260502191903 64 306 0.9 2.6 0.00 0.00 0.00 75 1014.2
20260502191402 65 345 0.9 2.6 0.00 0.00 0.00 75 1014.1
20260502190903 65 319 0.9 2.6 0.00 0.00 0.00 75 1014.1
20260502190402 65 326 0.9 2.6 0.00 0.00 0.00 74 1014.2
20260502185902 65 335 1.7 2.6 0.00 0.00 0.00 74 1014.0
20260502185403 65 276 0.9 2.6 0.00 0.00 0.00 73 1014.0
20260502184902 66 320 0.9 3.5 0.00 0.00 0.00 73 1014.1
20260502184401 66 324 0.0 3.5 0.00 0.00 0.00 72 1014.0
20260502183900 66 276 1.7 3.5 0.00 0.00 0.00 72 1014.1
20260502183358 66 308 0.9 3.5 0.00 0.00 0.00 71 1014.0
20260502182855 67 350 1.7 7.0 0.00 0.00 0.00 71 1014.1
20260502182353 67 343 2.6 7.0 0.00 0.00 0.00 71 1014.1
20260502181852 67 294 0.9 5.2 0.00 0.00 0.00 71 1014.1
20260502181351 68 297 0.9 6.1 0.00 0.00 0.00 72 1014.1
20260502180851 68 19 2.6 6.1 0.00 0.00 0.00 71 1014.2
20260502180341 69 338 2.6 8.7 0.00 0.00 0.00 70 1014.1
20260502170332 74 283 2.6 5.2 0.00 0.00 0.00 56 1014.3
20260502164327 75 230 3.5 5.2 0.00 0.00 0.00 55 1014.3
20260502163824 75 222 1.7 5.2 0.00 0.00 0.00 55 1014.4
20260502163323 75 111 2.6 7.0 0.00 0.00 0.00 55 1014.4
20260502162822 75 197 2.6 7.0 0.00 0.00 0.00 54 1014.5
20260502162315 75 172 2.6 6.1 0.00 0.00 0.00 55 1014.5
20260502161815 75 146 2.6 5.2 0.00 0.00 0.00 54 1014.6
20260502161313 75 208 2.6 4.3 0.00 0.00 0.00 55 1014.7
20260502160813 75 221 2.6 7.8 0.00 0.00 0.00 55 1014.6
20260502160313 76 218 4.3 7.8 0.00 0.00 0.00 54 1014.7
20260502152305 76 209 2.6 5.2 0.00 0.00 0.00 55 1015.0
20260502151802 75 286 1.7 7.0 0.00 0.00 0.00 55 1014.9
20260502151302 75 160 4.3 9.6 0.00 0.00 0.00 55 1015.0
20260502150802 75 265 3.5 9.6 0.00 0.00 0.00 55 1015.0
20260502150303 75 235 1.7 5.2 0.00 0.00 0.00 55 1015.2
20260502130725 74 170 3.5 9.6 0.00 0.00 0.00 55 1016.2
20260502130223 74 265 3.5 12.2 0.00 0.00 0.00 56 1016.2
20260502123717 74 176 2.6 8.7 0.00 0.00 0.00 56 1016.2
20260502123215 74 207 2.6 9.6 0.00 0.00 0.00 55 1016.3
20260502122714 74 235 2.6 9.6 0.00 0.00 0.00 55 1016.4
20260502122213 74 188 3.5 7.8 0.00 0.00 0.00 54 1016.3
20260502121712 75 202 3.5 7.8 0.00 0.00 0.00 53 1016.5
20260502121209 74 170 2.6 8.7 0.00 0.00 0.00 54 1016.6
20260502120707 74 196 5.2 10.4 0.00 0.00 0.00 55 1016.6
20260502120207 75 212 5.2 10.4 0.00 0.00 0.00 53 1016.6
20260502115705 75 180 5.2 8.7 0.00 0.00 0.00 52 1016.7
20260502115205 75 187 2.6 9.6 0.00 0.00 0.00 52 1016.7
20260502114707 76 179 6.1 11.3 0.00 0.00 0.00 50 1016.8
20260502114204 75 261 4.3 11.3 0.00 0.00 0.00 53 1016.8
20260502113705 75 201 3.5 9.6 0.00 0.00 0.00 51 1016.8
20260502113204 75 222 3.5 9.6 0.00 0.00 0.00 53 1017.0
20260502112710 76 245 5.2 9.6 0.00 0.00 0.00 49 1016.9
20260502112204 75 143 5.2 9.6 0.00 0.00 0.00 51 1016.9
20260502111702 75 212 6.1 9.6 0.00 0.00 0.00 51 1017.0
20260502111202 74 245 3.5 11.3 0.00 0.00 0.00 53 1016.9
20260502110659 75 157 4.3 11.3 0.00 0.00 0.00 51 1017.0
20260502110211 75 152 5.2 8.7 0.00 0.00 0.00 50 1016.8
20260502105657 74 222 4.3 8.7 0.00 0.00 0.00 52 1016.9
20260502105154 74 180 3.5 8.7 0.00 0.00 0.00 48 1017.0
20260502104653 74 168 3.5 7.0 0.00 0.00 0.00 47 1017.0
20260502104150 73 197 2.6 7.8 0.00 0.00 0.00 48 1016.9
20260502103648 73 137 3.5 7.8 0.00 0.00 0.00 47 1017.0
20260502103148 72 149 3.5 7.0 0.00 0.00 0.00 46 1017.0
20260502102647 72 199 1.7 7.0 0.00 0.00 0.00 46 1017.0
20260502102144 72 189 3.5 9.6 0.00 0.00 0.00 46 1017.2
20260502101645 72 180 6.1 9.6 0.00 0.00 0.00 45 1017.3
20260502101139 71 178 4.3 9.6 0.00 0.00 0.00 45 1017.2
20260502100641 71 136 5.2 9.6 0.00 0.00 0.00 46 1017.3
20260502100134 70 188 3.5 8.7 0.00 0.00 0.00 46 1017.3
20260502091120 68 145 4.3 7.0 0.00 0.00 0.00 47 1017.6
20260502090621 68 206 3.5 7.0 0.00 0.00 0.00 46 1017.4
20260502090118 67 152 3.5 7.8 0.00 0.00 0.00 49 1017.5
20260502080110 64 125 3.5 7.0 0.00 0.00 0.00 52 1017.4
20260502071054 63 145 1.7 7.0 0.00 0.00 0.00 53 1017.7
20260502070549 62 193 4.3 7.0 0.00 0.00 0.00 54 1017.8
20260502070101 62 130 2.6 7.8 0.00 0.00 0.00 55 1017.8
20260502065532 61 157 2.6 7.8 0.00 0.00 0.00 56 1018.0
20260502065031 61 163 4.3 8.7 0.00 0.00 0.00 56 1017.9
20260502064532 60 174 3.5 8.7 0.00 0.00 0.00 57 1018.0
20260502064030 60 109 2.6 6.1 0.00 0.00 0.00 57 1018.0
20260502063528 60 135 1.7 7.8 0.00 0.00 0.00 58 1017.9
20260502063027 60 104 3.5 7.8 0.00 0.00 0.00 57 1017.8
20260502062525 59 116 3.5 8.7 0.00 0.00 0.00 57 1017.8
20260502062024 59 77 2.6 8.7 0.00 0.00 0.00 57 1017.7
20260502061523 59 188 2.6 7.8 0.00 0.00 0.00 58 1017.7
20260502061021 58 142 0.9 4.3 0.00 0.00 0.00 60 1017.6
20260502060521 57 161 2.6 5.2 0.00 0.00 0.00 61 1017.7
20260502060023 55 181 1.7 5.2 0.00 0.00 0.00 64 1017.7
20260502055515 55 136 1.7 4.3 0.00 0.00 0.00 64 1017.6
20260502055011 55 173 0.9 3.5 0.00 0.00 0.00 64 1017.6
20260502054512 54 166 0.9 3.5 0.00 0.00 0.00 65 1017.5
20260502054003 54 119 0.9 6.1 0.00 0.00 0.00 65 1017.4
20260502053505 54 137 2.6 6.1 0.00 0.00 0.00 65 1017.5
20260502053018 53 192 1.7 5.2 0.00 0.00 0.00 65 1017.7
20260502052516 53 129 1.7 7.0 0.00 0.00 0.00 66 1017.7
20260502052004 53 141 1.7 7.0 0.00 0.00 0.00 66 1017.7
20260502051519 53 147 0.9 6.1 0.00 0.00 0.00 66 1017.7
20260502051004 52 180 0.9 6.1 0.00 0.00 0.00 67 1017.7
20260502050505 52 146 2.6 6.1 0.00 0.00 0.00 67 1017.8
20260502050008 52 133 1.7 3.5 0.00 0.00 0.00 66 1017.8
20260502045504 52 89 0.9 3.5 0.00 0.00 0.00 66 1017.8
20260502045003 52 168 0.0 2.6 0.00 0.00 0.00 65 1017.9
20260502044503 52 163 1.7 2.6 0.00 0.00 0.00 65 1017.9
20260502043958 52 180 0.0 2.6 0.00 0.00 0.00 65 1017.8
20260502043451 52 159 0.0 1.7 0.00 0.00 0.00 65 1017.9
20260502042950 52 147 0.0 1.7 0.00 0.00 0.00 65 1017.9
20260502042447 52 147 0.0 3.5 0.00 0.00 0.00 65 1017.8
20260502041946 52 116 0.9 3.5 0.00 0.00 0.00 65 1017.8
20260502041450 52 154 0.9 3.5 0.00 0.00 0.00 65 1017.8
20260502040945 52 141 0.9 2.6 0.00 0.00 0.00 65 1017.9
20260502040439 52 158 0.9 4.3 0.00 0.00 0.00 65 1018.0
20260502035934 52 143 0.9 4.3 0.00 0.00 0.00 65 1018.0
20260502035434 52 114 0.0 3.5 0.00 0.00 0.00 65 1018.1
20260502034938 52 164 0.0 3.5 0.00 0.00 0.00 65 1018.1
20260502034431 52 135 0.9 3.5 0.00 0.00 0.00 65 1018.1
20260502033931 52 137 0.0 2.6 0.00 0.00 0.00 64 1018.2
20260502033431 53 141 0.0 2.6 0.00 0.00 0.00 64 1018.2
20260502032931 53 145 0.0 3.5 0.00 0.00 0.00 63 1018.3
20260502032434 53 156 0.9 3.5 0.00 0.00 0.00 63 1018.3
20260502031931 53 155 0.9 2.6 0.00 0.00 0.00 63 1018.4
20260502031431 53 158 0.0 6.1 0.00 0.00 0.00 62 1018.3
20260502030931 53 147 2.6 6.1 0.00 0.00 0.00 63 1018.4
20260502030431 53 168 1.7 3.5 0.00 0.00 0.00 63 1018.5
20260502025931 52 144 0.9 3.5 0.00 0.00 0.00 64 1018.5
20260502025431 52 181 0.9 1.7 0.00 0.00 0.00 65 1018.4
20260502024931 52 167 0.0 1.7 0.00 0.00 0.00 65 1018.5
20260502024431 52 138 0.0 1.7 0.00 0.00 0.00 64 1018.6
20260502023934 52 138 0.0 0.9 0.00 0.00 0.00 63 1018.5
20260502023431 53 138 0.0 0.0 0.00 0.00 0.00 63 1018.6
20260502022931 53 138 0.0 1.7 0.00 0.00 0.00 63 1018.6
20260502022432 53 138 0.0 2.6 0.00 0.00 0.00 62 1018.7
20260502021931 54 138 0.0 2.6 0.00 0.00 0.00 61 1018.7